This is the latest recevied weather packets stored in our database for station/object KD0TGF-W. If no packets are shown the sender has not sent any weather packets the latest 10 day(s).
| Time | Temp. | Humidity | Pressure | Rain* | Wind** | Luminosity | Snow |
|---|---|---|---|---|---|---|---|
| 1777050592 | 11.11° C | 70% | 1009.2 hPa | 0 mm | - | - | - |
| 1777050532 | 11.11° C | 71% | 1009.3 hPa | 0 mm | - | - | - |
| 1777050473 | 11.11° C | 71% | 1009.3 hPa | 0 mm | - | - | - |
| 1777050413 | 11.11° C | 70% | 1009.3 hPa | 0 mm | - | - | - |
| 1777050352 | 11.11° C | 68% | 1009.2 hPa | 0 mm | - | - | - |
| 1777050292 | 11.11° C | 69% | 1009.2 hPa | 0 mm | - | - | - |
| 1777050233 | 11.11° C | 70% | 1009.2 hPa | 0 mm | - | - | - |
| 1777050173 | 11.11° C | 67% | 1009.2 hPa | 0 mm | - | - | - |
| 1777050112 | 10.56° C | 69% | 1009.2 hPa | 0 mm | - | - | - |
| 1777050052 | 10.56° C | 69% | 1009.2 hPa | 0 mm | - | - | - |
| 1777049993 | 10.56° C | 69% | 1009.4 hPa | 0 mm | - | - | - |
| 1777049933 | 10.56° C | 70% | 1009.4 hPa | 0 mm | - | - | - |
| 1777049872 | 10.56° C | 69% | 1009.3 hPa | 0 mm | - | - | - |
| 1777049812 | 10.56° C | 69% | 1009.3 hPa | 0 mm | - | - | - |
| 1777049753 | 10.56° C | 67% | 1009.3 hPa | 0 mm | - | - | - |
| 1777049693 | 10.56° C | 69% | 1009.4 hPa | 0 mm | - | - | - |
| 1777049632 | 10.56° C | 70% | 1009.4 hPa | 0 mm | - | - | - |
| 1777049572 | 10.56° C | 68% | 1009.4 hPa | 0 mm | - | - | - |
| 1777049513 | 10.56° C | 71% | 1009.4 hPa | 0 mm | - | - | - |
| 1777049453 | 10.56° C | 71% | 1009.4 hPa | 0 mm | - | - | - |
| 1777049392 | 10.56° C | 69% | 1009.4 hPa | 0 mm | - | - | - |
| 1777049332 | 10.56° C | 70% | 1009.4 hPa | 0 mm | - | - | - |
| 1777049272 | 10.56° C | 68% | 1009.4 hPa | 0 mm | - | - | - |
| 1777049213 | 10.56° C | 70% | 1009.4 hPa | 0 mm | - | - | - |
| 1777049153 | 10.56° C | 73% | 1009.4 hPa | 0 mm | - | - | - |
* Rain latest hour (hover to see other rain measurements)
** Current wind speed in m/s (hover to see current wind gust speed)